La Grande, OR

1:32 AM PST on November 20, 2017 (GMT -0800)
La Grande-Union County

Weather History for KLGD - March, 2013

Change the Weather History Date:

Wednesday, March 6, 2013

  Actual Average Record
Temperature  
Mean Temperature 42 °F -  
Max Temperature 51 °F 45 °F 67 °F (1987)
Min Temperature 33 °F 28 °F 12 °F (1985)
Degree Days  
Heating Degree Days 23    
Moisture  
Dew Point 27 °F    
Average Humidity 58    
Maximum Humidity 75    
Minimum Humidity 38    
Precipitation  
Precipitation 0.07 in - - ()
Sea Level Pressure  
Sea Level Pressure 29.69 in    
Wind  
Wind Speed 9 mph (South)    
Max Wind Speed 25 mph    
Max Gust Speed 31 mph    
Visibility 10 miles    
Events      
Averages and records for this station are not official NWS values.
T = Trace of Precipitation, MM = Missing Value Source: NWS Daily Summary

Daily Weather History Graph

Daily Weather History Graph

Search for Another Location

Airport or City:

Trip Planner

Search our weather history database for the weather conditions in past years. The results will help you decide how hot, cold, wet, or windy it might be!

Date:

Astronomy

Mar. 06, 2013 Rise Set
Actual Time 6:20 AM PST 5:46 PM PST
Civil Twilight 5:51 AM PST 6:15 PM PST
Nautical Twilight 5:17 AM PST 6:50 PM PST
Astronomical Twilight 4:42 AM PST 7:24 PM PST
Moon 2:45 AM PST (3/6) 12:21 PM PST (3/6)
Length of Visible Light 12h 24m
Length of Day
11h 25m
Waning Crescent, 29% of the Moon is Illuminated
Mar 6
Waning Crescent
Mar 11
New
Mar 19
First Quarter
Mar 27
Full
Apr 2
Last Quarter

Hourly Weather History & Observations

Time (PST) Temp. Windchill Dew Point Humidity Pressure Visibility Wind Dir Wind Speed Gust Speed Precip Events Conditions
12:15 AM 37.4 °F 34.9 °F 21.2 °F 52% 29.71 in 10.0 mi NW 3.5 mph - N/A   Overcast
12:35 AM 37.4 °F 33.8 °F 21.2 °F 52% 29.71 in 10.0 mi WNW 4.6 mph - N/A   Scattered Clouds
12:55 AM 35.6 °F 30.7 °F 21.2 °F 56% 29.70 in 10.0 mi NW 5.8 mph - N/A   Clear
1:15 AM 37.4 °F 33.8 °F 23.0 °F 56% 29.69 in 10.0 mi NW 4.6 mph - N/A   Scattered Clouds
1:35 AM 35.6 °F - 21.2 °F 56% 29.69 in 10.0 mi Calm Calm - N/A   Partly Cloudy
1:55 AM 37.4 °F 34.9 °F 24.8 °F 60% 29.68 in 10.0 mi NNE 3.5 mph - N/A   Clear
2:15 AM 35.6 °F 28.6 °F 23.0 °F 60% 29.67 in 10.0 mi SSW 9.2 mph - N/A   Clear
2:35 AM 41.0 °F 35.2 °F 24.8 °F 53% 29.66 in 10.0 mi South 9.2 mph - N/A   Clear
2:55 AM 42.8 °F 36.2 °F 24.8 °F 49% 29.66 in 10.0 mi South 12.7 mph - N/A   Mostly Cloudy
3:15 AM 42.8 °F 36.2 °F 24.8 °F 49% 29.66 in 10.0 mi South 12.7 mph - N/A   Overcast
3:35 AM 44.6 °F 39.2 °F 24.8 °F 46% 29.66 in 10.0 mi South 10.4 mph 17.3 mph N/A   Overcast
3:55 AM 44.6 °F 37.4 °F 24.8 °F 46% 29.65 in 10.0 mi South 16.1 mph 21.9 mph N/A   Overcast
4:15 AM 42.8 °F 34.5 °F 24.8 °F 49% 29.64 in 10.0 mi South 18.4 mph 24.2 mph N/A   Mostly Cloudy
4:35 AM 42.8 °F 36.6 °F 26.6 °F 53% 29.65 in 10.0 mi SSW 11.5 mph - N/A   Overcast
4:55 AM 42.8 °F 37.5 °F 26.6 °F 53% 29.64 in 10.0 mi SSW 9.2 mph - N/A   Overcast
5:15 AM 39.2 °F 33.0 °F 26.6 °F 61% 29.62 in 10.0 mi South 9.2 mph - N/A   Overcast
5:35 AM 39.2 °F 34.2 °F 28.4 °F 65% 29.62 in 10.0 mi South 6.9 mph - N/A   Overcast
5:55 AM 39.2 °F 33.0 °F 28.4 °F 65% 29.62 in 10.0 mi SSW 9.2 mph - N/A   Overcast
6:15 AM 41.0 °F 35.8 °F 28.4 °F 61% 29.61 in 10.0 mi South 8.1 mph - N/A   Overcast
6:35 AM 41.0 °F 37.1 °F 28.4 °F 61% 29.61 in 10.0 mi South 5.8 mph - N/A   Overcast
6:55 AM 41.0 °F 37.1 °F 28.4 °F 61% 29.61 in 10.0 mi SSE 5.8 mph - N/A   Scattered Clouds
7:15 AM 41.0 °F 33.1 °F 28.4 °F 61% 29.60 in 10.0 mi South 15.0 mph 20.7 mph N/A   Clear
7:35 AM 42.8 °F 38.0 °F 28.4 °F 57% 29.61 in 10.0 mi South 8.1 mph - N/A   Clear
7:55 AM 42.8 °F 37.0 °F 28.4 °F 57% 29.61 in 10.0 mi South 10.4 mph 20.7 mph N/A   Scattered Clouds
8:15 AM 44.6 °F 38.1 °F 28.4 °F 53% 29.60 in 10.0 mi South 13.8 mph 17.3 mph N/A   Mostly Cloudy
8:35 AM 42.8 °F 37.5 °F 28.4 °F 57% 29.60 in 10.0 mi SSE 9.2 mph 16.1 mph N/A   Mostly Cloudy
8:55 AM 46.4 °F 41.1 °F 30.2 °F 53% 29.59 in 10.0 mi South 11.5 mph 20.7 mph N/A   Mostly Cloudy
9:15 AM 46.4 °F 40.4 °F 30.2 °F 53% 29.58 in 10.0 mi South 13.8 mph 24.2 mph N/A   Mostly Cloudy
9:35 AM 48.2 °F - 30.2 °F 50% 29.57 in 10.0 mi SSW 18.4 mph 25.3 mph N/A   Partly Cloudy
9:55 AM 50.0 °F - 30.2 °F 47% 29.58 in 10.0 mi South 23.0 mph 31.1 mph N/A   Partly Cloudy
10:15 AM 48.2 °F - 30.2 °F 50% 29.58 in 10.0 mi SSW 19.6 mph - N/A   Mostly Cloudy
10:35 AM 42.8 °F 36.2 °F 30.2 °F 61% 29.61 in 9.0 mi South 12.7 mph 31.1 mph N/A   Overcast
10:55 AM 42.8 °F 35.8 °F 32.0 °F 66% 29.61 in 10.0 mi South 13.8 mph 26.5 mph 0.01 in   Overcast
11:15 AM 46.4 °F 41.5 °F 35.6 °F 66% 29.60 in 10.0 mi South 10.4 mph - N/A   Scattered Clouds
11:35 AM 48.2 °F - 33.8 °F 58% 29.59 in 10.0 mi South 15.0 mph 25.3 mph N/A   Scattered Clouds
11:55 AM 50.0 °F - 32.0 °F 50% 29.59 in 10.0 mi South 21.9 mph 26.5 mph N/A   Partly Cloudy
12:15 PM 51.8 °F - 32.0 °F 47% 29.59 in 10.0 mi South 13.8 mph - N/A   Scattered Clouds
12:35 PM 51.8 °F - 30.2 °F 44% 29.60 in 10.0 mi South 16.1 mph 21.9 mph N/A   Scattered Clouds
12:55 PM 50.0 °F - 26.6 °F 40% 29.60 in 10.0 mi South 17.3 mph 26.5 mph N/A   Overcast
1:15 PM 48.2 °F - 26.6 °F 43% 29.60 in 10.0 mi South 16.1 mph 28.8 mph N/A   Overcast
1:35 PM 50.0 °F - 26.6 °F 40% 29.59 in 10.0 mi South 17.3 mph 23.0 mph N/A   Mostly Cloudy
1:55 PM 50.0 °F - 28.4 °F 43% 29.59 in 10.0 mi South 13.8 mph 21.9 mph N/A   Mostly Cloudy
2:15 PM 51.8 °F - 26.6 °F 38% 29.59 in 10.0 mi SSE 11.5 mph - N/A   Overcast
2:35 PM 48.2 °F - 26.6 °F 43% 29.60 in 10.0 mi SSE 9.2 mph - N/A   Overcast
2:55 PM 48.2 °F - 28.4 °F 46% 29.62 in 10.0 mi SSW 19.6 mph 23.0 mph N/A   Mostly Cloudy
3:15 PM 46.4 °F 42.4 °F 28.4 °F 50% 29.63 in 10.0 mi South 8.1 mph - N/A   Overcast
3:35 PM 46.4 °F 40.7 °F 28.4 °F 50% 29.64 in 10.0 mi South 12.7 mph - N/A   Overcast
3:55 PM 44.6 °F 38.8 °F 28.4 °F 53% 29.64 in 10.0 mi South 11.5 mph - N/A   Mostly Cloudy
4:15 PM 44.6 °F 39.2 °F 26.6 °F 49% 29.65 in 10.0 mi South 10.4 mph - N/A   Mostly Cloudy
4:35 PM 42.8 °F 34.0 °F 26.6 °F 53% 29.68 in 10.0 mi West 20.7 mph 27.6 mph N/A   Mostly Cloudy
4:55 PM 39.2 °F 30.2 °F 26.6 °F 61% 29.70 in 4.0 mi West 17.3 mph 29.9 mph 0.01 in   Overcast
5:15 PM 39.2 °F 28.3 °F 26.6 °F 61% 29.73 in 5.0 mi West 25.3 mph 29.9 mph 0.02 in   Overcast
5:35 PM 35.6 °F 26.2 °F 26.6 °F 70% 29.73 in 7.0 mi NW 15.0 mph - 0.04 in   Overcast
5:55 PM 37.4 °F 32.1 °F 28.4 °F 70% 29.73 in 10.0 mi NNW 6.9 mph - 0.04 in   Mostly Cloudy
6:35 PM 35.6 °F 29.2 °F 28.4 °F 75% 29.79 in 10.0 mi ENE 8.1 mph - 0.01 in   Mostly Cloudy
6:55 PM 37.4 °F 33.8 °F 28.4 °F 70% 29.80 in 10.0 mi NNE 4.6 mph - 0.01 in   Overcast
7:15 PM 35.6 °F 29.9 °F 28.4 °F 75% 29.82 in 10.0 mi ESE 6.9 mph - N/A   Overcast
7:35 PM 35.6 °F 30.7 °F 28.4 °F 75% 29.83 in 10.0 mi ESE 5.8 mph - N/A   Overcast
7:55 PM 35.6 °F 31.7 °F 28.4 °F 75% 29.84 in 10.0 mi SE 4.6 mph - N/A   Overcast
8:15 PM 35.6 °F 29.2 °F 28.4 °F 75% 29.84 in 10.0 mi SE 8.1 mph - N/A   Overcast
8:35 PM 35.6 °F 30.7 °F 28.4 °F 75% 29.85 in 10.0 mi ESE 5.8 mph - N/A   Overcast
8:55 PM 35.6 °F 29.2 °F 28.4 °F 75% 29.85 in 10.0 mi SE 8.1 mph - N/A   Mostly Cloudy
9:15 PM 35.6 °F 30.7 °F 26.6 °F 70% 29.86 in 10.0 mi South 5.8 mph - N/A   Mostly Cloudy
9:35 PM 33.8 °F 27.7 °F 26.6 °F 75% 29.86 in 10.0 mi SSW 6.9 mph - N/A   Overcast
9:55 PM 35.6 °F - 26.6 °F 70% 29.87 in 10.0 mi Calm Calm - N/A   Overcast
10:15 PM 33.8 °F 29.6 °F 26.6 °F 75% 29.88 in 10.0 mi SW 4.6 mph - N/A   Partly Cloudy
10:35 PM 35.6 °F 31.7 °F 26.6 °F 70% 29.88 in 10.0 mi SSW 4.6 mph - N/A   Clear
10:55 PM 35.6 °F 29.2 °F 23.0 °F 60% 29.89 in 10.0 mi South 8.1 mph - N/A   Clear
11:15 PM 33.8 °F 27.0 °F 24.8 °F 70% 29.90 in 10.0 mi South 8.1 mph - N/A   Clear
11:35 PM 33.8 °F 27.7 °F 23.0 °F 65% 29.90 in 10.0 mi SSE 6.9 mph - N/A   Partly Cloudy
11:55 PM 33.8 °F 27.7 °F 23.0 °F 65% 29.91 in 10.0 mi South 6.9 mph - N/A   Mostly Cloudy